Regional Weather Roundup
Issued by NWS

Home | Current Version | Previous Version | Text Only | Print | Product List | Glossary On
Versions: 1 2 3 4 5 6 7 8 9 10 11 12 13 14 15 16 17 18 19 20 21 22 23 24 25 26 27
000
ASUS45 KTFX 261510
RWRMT
MONTANA REGIONAL WEATHER ROUNDUP
NATIONAL WEATHER SERVICE GREAT FALLS MT
900 AM MDT FRI MAY 26 2017

NOTE: "FAIR" INDICATES FEW OR NO CLOUDS BELOW 12000 FEET WITH NO
SIGNIFICANT WEATHER AND/OR OBSTRUCTIONS TO VISIBILITY.

MTZ001>007-043-261600-
WEST OF THE DIVIDE

CITY           SKY/WX    TMP DP  RH WIND       PRES   REMARKS
KALISPELL      PTSUNNY   51  42  71 N8        29.95S
MISSOULA       SUNNY     54  38  54 W3        29.95S
BUTTE          SUNNY     43  30  60 CALM      29.96S
MULLAN PASS    SUNNY     44  33  65 VRB3      29.97R
ANACONDA         N/A     46  32  57 NE3       29.96S
DEER LODGE       N/A     46  36  66 SE3       29.98F
EUREKA           N/A     48  41  76 CALM      29.98F
HAMILTON         N/A     50  34  53 CALM      29.94S
RONAN            N/A     55  39  54 CALM      30.00R
$$

MTZ008-052>055-261600-
SOUTHWEST MONTANA

CITY           SKY/WX    TMP DP  RH WIND       PRES   REMARKS
BOZEMAN        SUNNY     48  36  63 CALM      29.95S
DILLON         CLOUDY    48  32  53 NE16      29.91S
W YELLOWSTONE  CLOUDY    41  28  60 NE3       29.91F
ENNIS          MOSUNNY   46  34  61 N20       29.94F
THREE FORKS      N/A     47  36  65 CALM      29.95S
TWIN BRIDGES     N/A     47  30  51 N15       29.91S
$$

MTZ009-010-012-014-046-048-049-054-261600-
EAST SLOPES AND CENTRAL MONTANA

CITY           SKY/WX    TMP DP  RH WIND       PRES   REMARKS
CUT BANK       SUNNY     51  38  60 NW7       29.94S
GREAT FALLS    SUNNY     51  38  60 W3        29.96S
MALMSTROM AFB  SUNNY     51  38  62 CALM      29.96S
HELENA         MOSUNNY   52  38  58 CALM      29.95F
CHOTEAU          N/A     52  36  54 CALM      29.97S
CONRAD           N/A     53  47  80 W7        29.97S
$$

MTZ011-013-016-021-045-047-050-051-261600-
NORTH CENTRAL MONTANA

CITY           SKY/WX    TMP DP  RH WIND       PRES   REMARKS
HAVRE          MOSUNNY   53  41  63 W12       29.91S
LEWISTOWN      SUNNY     47  38  71 W6        29.96S
N BAR RANCH      N/A     48  36  61 NW16      29.97S
CHINOOK          N/A     54  41  62 W14       29.90S
FORT BENTON      N/A     54  37  54 CALM        N/A
$$

MTZ017>020-022>027-061-062-261600-
NORTHEAST MONTANA

CITY           SKY/WX    TMP DP  RH WIND       PRES   REMARKS
GLASGOW        SUNNY     58  40  51 NW10      29.84R
JORDAN           N/A     57  40  52 W17       29.88S
SIDNEY         CLOUDY    54  40  59 NW17G23   29.81R
WOLF POINT     PTSUNNY   60  40  47 W16G23    29.82S
MALTA          SUNNY     55  43  62 W17       29.86S
PLENTYWOOD       N/A     54  39  58 NW26G35   29.72F
POPLAR           N/A     57  36  44 NW23G31   29.79S
$$

MTZ028>42-056>058-261600-
SOUTHCENTRAL AND SOUTHEAST MONTANA

CITY           SKY/WX    TMP DP  RH WIND       PRES   REMARKS
BAKER          SUNNY     55  37  50 NW18G36   29.86S
BILLINGS       MOSUNNY   50  36  58 SW7       29.94F
LIVINGSTON     SUNNY     46  34  62 CALM      29.94F
MILES CITY     MOSUNNY   56  37  49 SW15      29.89S
BIG TIMBER     SUNNY     46  36  66 CALM      29.99R
FORSYTH          N/A     52  39  62 W7        29.91F
LAUREL           N/A     51  37  58 CALM      29.94F
ROUNDUP          N/A     56  33  41 W9        29.86R
$$

REGIONAL REPORTS...DAKOTAS

CITY           SKY/WX    TMP DP  RH WIND       PRES   REMARKS
WILLISTON      CLOUDY    55  42  61 NW21G29   29.76R
MINOT          CLOUDY    56  43  61 W25G33    29.68R
DICKINSON      PTSUNNY   53  37  54 NW28G36   29.78S
BEACH          PTSUNNY   54  39  58 NW22G32   29.86S
CROSBY         CLOUDY    52  45  76 NW24G33   29.71R
TIOGA          CLOUDY    50  48  93 W21G29    29.74R
WATFORD CITY   CLOUDY    52  41  66 W20G25    29.76S
BISMARCK       CLOUDY    56  40  55 W20G26    29.77R
GRAND FORKS    MOSUNNY   65  50  58 W10       29.63S
FARGO          SUNNY     64  49  57 W8        29.67S
BUFFALO SD       N/A     56  37  49 NW28      29.81S
RAPID CITY     SUNNY     60  34  37 N13       29.91R
$$

REGIONAL REPORTS...WYOMING/IDAHO/WASHINGTON

CITY           SKY/WX    TMP DP  RH WIND       PRES   REMARKS
GILLETTE       CLOUDY    53  35  50 NW6       29.94R
SHERIDAN       SUNNY     54  37  52 NW5       29.94F
BUFFALO WY     CLOUDY    52  34  50 N5        29.96S
CODY           CLOUDY    49  32  52 NE7       29.95S
YELLOWSTONE LA   N/A     37  28  70 VRB6      29.93F
IDAHO FALLS    CLOUDY    45  42  89 CALM      29.85F
SALMON         MOSUNNY   48  39  71 CALM      29.89S
BOISE          MOSUNNY   51  43  74 W8        29.88R
SPOKANE        SUNNY     55  42  61 NE6       29.94R
$$

REGIONAL REPORTS...ALBERTA

CITY           SKY/WX    TMP DP  RH WIND       PRES   REMARKS
EDMONTON       PTSUNNY   54  45  71 W7        29.78S
CALGARY        MOSUNNY   55  32  41 W12       29.89S
LETHBRIDGE     MOSUNNY   52  41  66 W12       29.91F
MEDICINE HAT   MOSUNNY   55  43  62 SW10      29.86F
WATERTON GATE    N/A     48  37  66 S9          N/A
CARDSTON         N/A     52  37  58 S1          N/A
MILK RIVER       N/A     54  43  66 W10         N/A
ONEFOUR          N/A     48  41  76 NW16        N/A
$$

REGIONAL REPORTS...SASKATCHEWAN

CITY           SKY/WX    TMP DP  RH WIND       PRES   REMARKS
SWIFT CURRENT  SUNNY     54  41  62 W16G23    29.77R
REGINA         CLOUDY    52  43  71 NW24G31   29.67R
SASKATOON      MOSUNNY   54  43  66 W21       29.67S
CYPRESS HILLS    N/A     48  37  66 NW8         N/A
ROCKGLEN         N/A     52  39  62 NW18G26     N/A
$$




USA.gov is the U.S. government's official web portal to all federal, state and local government web resources and services.